GW6973 Weather Reports


time (UTC)temp
C
wind
direction
speed
KPH
gust
KPH
rain 1hr
cm
rain 24hr
cm
rain mn
cm
humidity
%
barometer
mb
20260502235441 20 54 4.8 11.3 0.00 0.00 0.00 29 1015.8
20260502234941 19 77 3.2 9.7 0.00 0.00 0.00 29 1015.7
20260502234441 19 61 3.2 9.7 0.00 0.00 0.00 31 1016.0
20260502233941 18 27 3.2 9.7 0.00 0.00 0.00 30 1016.1
20260502233441 18 48 3.2 6.4 0.00 0.00 0.00 29 1016.2
20260502232941 18 12 3.2 6.4 0.00 0.00 0.00 29 1016.2
20260502232441 18 53 3.2 6.4 0.00 0.00 0.00 29 1016.2
20260502231941 18 50 3.2 6.4 0.00 0.00 0.00 28 1016.5
20260502231441 18 52 3.2 9.7 0.00 0.00 0.00 28 1016.4
20260502230941 19 55 3.2 9.7 0.00 0.00 0.00 27 1016.3
20260502230441 19 30 1.6 6.4 0.00 0.00 0.00 29 1016.4
20260502225942 20 61 1.6 6.4 0.00 0.00 0.00 28 1016.4
20260502225441 21 146 1.6 3.2 0.00 0.00 0.00 26 1016.5
20260502224945 21 125 1.6 6.4 0.00 0.00 0.00 28 1016.6
20260502224443 20 142 3.2 9.7 0.00 0.00 0.00 30 1016.6
20260502223945 20 94 3.2 9.7 0.00 0.00 0.00 28 1016.6
20260502223444 20 82 1.6 9.7 0.00 0.00 0.00 31 1016.5
20260502223004 20 90 0.0 4.8 0.00 0.00 0.00 28 1016.7
20260502222444 19 119 0.0 4.8 0.00 0.00 0.00 30 1016.8
20260502221946 18 39 1.6 6.4 0.00 0.00 0.00 30 1016.8
20260502221446 18 77 1.6 9.7 0.00 0.00 0.00 31 1017.1
20260502221006 18 57 3.2 9.7 0.00 0.00 0.00 32 1017.2
20260502220444 18 60 3.2 16.1 0.00 0.00 0.00 29 1017.2
20260502220010 19 20 6.4 16.1 0.00 0.00 0.00 28 1017.1
20260502215441 20 49 6.4 16.1 0.00 0.00 0.00 28 1017.2
20260502214942 20 51 4.8 12.9 0.00 0.00 0.00 30 1017.2
20260502214443 20 52 4.8 12.9 0.00 0.00 0.00 28 1017.4
20260502213944 20 49 4.8 11.3 0.00 0.00 0.00 28 1017.5
20260502213441 20 14 4.8 11.3 0.00 0.00 0.00 31 1017.7
20260502212447 20 12 4.8 12.9 0.00 0.00 0.00 31 1017.6
20260502212008 20 219 3.2 12.9 0.00 0.00 0.00 33 1017.4
20260502211447 20 134 1.6 9.7 0.00 0.00 0.00 32 1017.8
20260502210947 20 129 3.2 11.3 0.00 0.00 0.00 32 1017.8
20260502210508 19 154 4.8 12.9 0.00 0.00 0.00 33 1017.8
20260502205947 19 111 4.8 12.9 0.00 0.00 0.00 30 1018.1
20260502205447 20 103 1.6 9.7 0.00 0.00 0.00 32 1018.0
20260502204947 20 142 3.2 9.7 0.00 0.00 0.00 31 1018.1
20260502204447 19 192 3.2 9.7 0.00 0.00 0.00 31 1018.4
20260502203947 18 199 3.2 9.7 0.00 0.00 0.00 33 1018.3
20260502203447 19 51 3.2 9.7 0.00 0.00 0.00 34 1018.4
20260502202947 19 127 3.2 6.4 0.00 0.00 0.00 36 1018.3
20260502202508 20 138 3.2 9.7 0.00 0.00 0.00 34 1018.9
20260502202008 20 131 3.2 11.3 0.00 0.00 0.00 34 1018.6
20260502201447 19 170 3.2 11.3 0.00 0.00 0.00 35 1019.0
20260502201008 20 241 3.2 11.3 0.00 0.00 0.00 33 1018.8
20260502200447 19 174 3.2 12.9 0.00 0.00 0.00 33 1019.0
20260502195947 18 73 4.8 12.9 0.00 0.00 0.00 34 1019.1
20260502195447 18 126 4.8 12.9 0.00 0.00 0.00 34 1019.0
20260502194947 18 138 3.2 11.3 0.00 0.00 0.00 34 1019.3
20260502194508 18 116 3.2 11.3 0.00 0.00 0.00 34 1019.3
20260502193948 18 167 3.2 11.3 0.00 0.00 0.00 35 1019.2
20260502193447 18 159 3.2 16.1 0.00 0.00 0.00 36 1019.3
20260502193008 17 97 3.2 16.1 0.00 0.00 0.00 40 1019.5
20260502192447 17 135 1.6 9.7 0.00 0.00 0.00 40 1019.3
20260502191947 16 106 1.6 6.4 0.00 0.00 0.00 41 1019.5
20260502191508 16 57 1.6 6.4 0.00 0.00 0.00 38 1019.4
20260502190947 17 130 3.2 9.7 0.00 0.00 0.00 35 1019.6
20260502190447 17 34 3.2 9.7 0.00 0.00 0.00 35 1019.5
20260502185947 17 90 3.2 11.3 0.00 0.00 0.00 36 1019.9
20260502185447 18 53 4.8 11.3 0.00 0.00 0.00 38 1019.7
20260502184947 18 33 3.2 11.3 0.00 0.00 0.00 37 1019.9
20260502184508 17 179 3.2 11.3 0.00 0.00 0.00 35 1020.1
20260502183947 17 21 3.2 11.3 0.00 0.00 0.00 36 1020.1
20260502183447 17 47 3.2 11.3 0.00 0.00 0.00 35 1020.1
20260502182946 17 165 1.6 9.7 0.00 0.00 0.00 35 1020.2
20260502182508 16 146 1.6 9.7 0.00 0.00 0.00 39 1020.1
20260502181947 16 70 3.2 11.3 0.00 0.00 0.00 36 1020.2
20260502181447 16 120 4.8 12.9 0.00 0.00 0.00 38 1020.3
20260502180947 17 127 4.8 12.9 0.00 0.00 0.00 41 1020.3
20260502180446 16 119 4.8 12.9 0.00 0.00 0.00 40 1020.3
20260502170447 15 77 4.8 14.5 0.00 0.00 0.00 39 1020.5
20260502161947 15 47 8.0 16.1 0.00 0.00 0.00 41 1020.6
20260502161447 15 43 8.0 16.1 0.00 0.00 0.00 41 1020.9
20260502160948 15 40 9.7 20.9 0.00 0.00 0.00 39 1020.6
20260502160448 15 45 8.0 20.9 0.00 0.00 0.00 41 1020.6
20260502151948 13 44 6.4 14.5 0.00 0.00 0.00 45 1020.8
20260502151448 13 46 6.4 14.5 0.00 0.00 0.00 44 1020.9
20260502150948 12 24 6.4 14.5 0.00 0.00 0.00 46 1020.8
20260502150448 12 23 6.4 14.5 0.00 0.00 0.00 46 1021.1
20260502130512 10 336 14.5 25.7 0.00 0.00 0.00 57 1019.4
20260502123516 8 313 12.9 22.5 0.00 0.00 0.00 58 1019.2
20260502122955 8 314 14.5 22.5 0.00 0.00 0.00 59 1019.1
20260502122455 8 301 14.5 22.5 0.00 0.00 0.00 59 1019.0
20260502121955 8 299 12.9 24.1 0.00 0.00 0.00 59 1018.8
20260502121455 8 311 12.9 24.1 0.00 0.00 0.00 59 1018.9
20260502120955 8 318 12.9 20.9 0.00 0.00 0.00 59 1018.9
20260502120455 8 310 14.5 22.5 0.00 0.00 0.00 58 1018.6
20260502115455 8 329 14.5 24.1 0.00 0.00 0.00 58 1018.6
20260502114955 8 326 16.1 25.7 0.00 0.00 0.00 58 1018.8
20260502114516 9 342 16.1 27.4 0.00 0.00 0.00 57 1018.9
20260502113955 9 303 16.1 27.4 0.00 0.00 0.00 57 1018.5
20260502113516 9 317 16.1 24.1 0.00 0.00 0.00 57 1018.6
20260502112955 9 307 16.1 25.7 0.00 0.00 0.00 57 1018.6
20260502112516 9 314 16.1 25.7 0.00 0.00 0.00 57 1018.8
20260502111955 9 305 16.1 25.7 0.00 0.00 0.00 56 1018.4
20260502111516 9 314 16.1 25.7 0.00 0.00 0.00 56 1018.6
20260502111016 9 296 16.1 25.7 0.00 0.00 0.00 57 1018.3
20260502110455 9 304 14.5 27.4 0.00 0.00 0.00 57 1018.4
20260502105955 9 315 16.1 27.4 0.00 0.00 0.00 56 1018.4
20260502105516 9 309 16.1 25.7 0.00 0.00 0.00 56 1018.3
20260502104955 9 307 14.5 25.7 0.00 0.00 0.00 56 1018.2
20260502104455 9 305 12.9 24.1 0.00 0.00 0.00 57 1018.1
20260502104016 9 300 12.9 24.1 0.00 0.00 0.00 56 1018.1
20260502103455 9 313 14.5 22.5 0.00 0.00 0.00 56 1018.1
20260502102955 9 307 12.9 22.5 0.00 0.00 0.00 56 1018.1
20260502102455 9 286 12.9 24.1 0.00 0.00 0.00 56 1018.1
20260502101955 9 317 14.5 24.1 0.00 0.00 0.00 56 1018.1
20260502101455 9 303 12.9 24.1 0.00 0.00 0.00 56 1017.8
20260502100955 9 311 12.9 22.5 0.00 0.00 0.00 55 1017.8
20260502100455 9 306 12.9 22.5 0.00 0.00 0.00 54 1018.1
20260502091501 6 252 4.8 4.8 0.00 0.00 0.00 51 1016.9
20260502091001 6 258 3.2 4.8 0.00 0.00 0.00 52 1016.6
20260502090501 6 266 3.2 4.8 0.00 0.00 0.00 52 1016.8
20260502071501 7 0 0.0 1.6 0.00 0.00 0.00 45 1016.9
20260502071001 6 0 0.0 1.6 0.00 0.00 0.00 46 1016.9
20260502070501 7 68 0.0 4.8 0.00 0.00 0.00 44 1016.8
20260502070001 8 136 1.6 4.8 0.00 0.00 0.00 42 1016.8
20260502065501 8 269 1.6 4.8 0.00 0.00 0.00 42 1016.8
20260502065001 7 44 1.6 3.2 0.00 0.00 0.00 42 1016.7
20260502064501 8 16 1.6 3.2 0.00 0.00 0.00 42 1016.8
20260502064001 7 35 3.2 4.8 0.00 0.00 0.00 43 1016.7
20260502063501 8 296 3.2 4.8 0.00 0.00 0.00 42 1016.8
20260502063001 7 267 1.6 3.2 0.00 0.00 0.00 42 1016.6
20260502062501 7 167 0.0 3.2 0.00 0.00 0.00 44 1016.7
20260502062001 6 0 0.0 0.0 0.00 0.03 0.00 45 1016.8
20260502061501 6 0 0.0 0.0 0.00 0.03 0.00 45 1016.7
20260502061022 7 0 0.0 1.6 0.00 0.03 0.00 44 1016.7
20260502060501 8 80 0.0 1.6 0.00 0.03 0.00 41 1016.7
20260502060023 7 53 0.0 1.6 0.00 0.03 0.00 42 1016.7
20260502055501 7 146 0.0 1.6 0.00 0.03 0.00 42 1016.7
20260502055001 7 0 0.0 0.0 0.00 0.03 0.00 41 1016.5
20260502054522 7 0 0.0 0.0 0.00 0.03 0.00 41 1016.4
20260502054001 7 0 0.0 0.0 0.00 0.03 0.00 42 1016.4
20260502053501 7 0 0.0 0.0 0.00 0.03 0.00 42 1016.5
20260502053022 7 0 0.0 0.0 0.00 0.03 0.00 42 1016.6
20260502052501 7 0 0.0 0.0 0.00 0.03 0.00 41 1016.6
20260502052001 7 0 0.0 0.0 0.00 0.03 0.00 42 1016.5
20260502051501 7 0 0.0 3.2 0.00 0.03 0.00 43 1016.5
20260502051001 8 0 1.6 3.2 0.00 0.03 0.00 42 1016.5
20260502050501 7 149 1.6 3.2 0.00 0.03 0.00 41 1016.5
20260502050001 8 67 1.6 4.8 0.00 0.03 0.00 40 1016.5
20260502045501 8 55 3.2 4.8 0.00 0.03 0.00 39 1016.3
20260502045001 8 278 3.2 4.8 0.00 0.03 0.00 39 1016.3
20260502044501 9 291 3.2 4.8 0.00 0.03 0.00 38 1016.4
20260502044001 9 26 3.2 4.8 0.00 0.03 0.00 38 1016.4
20260502043522 9 296 4.8 4.8 0.00 0.03 0.00 38 1016.4
20260502043001 9 295 4.8 4.8 0.00 0.03 0.00 38 1016.1
20260502042522 10 301 4.8 4.8 0.00 0.03 0.00 38 1016.4
20260502042022 10 298 4.8 4.8 0.00 0.03 0.00 37 1016.5
20260502041522 10 319 4.8 11.3 0.00 0.03 0.00 36 1016.4
20260502041022 10 294 6.4 11.3 0.00 0.03 0.00 36 1016.3
20260502040501 10 263 8.0 11.3 0.00 0.03 0.00 36 1016.3
20260502040022 10 270 6.4 11.3 0.00 0.03 0.00 35 1016.3
20260502035501 10 267 8.0 12.9 0.00 0.03 0.00 35 1016.2
20260502035001 10 270 8.0 12.9 0.00 0.03 0.00 34 1016.2
20260502034504 8 263 4.8 9.7 0.00 0.03 0.00 38 1016.1
20260502034025 8 254 1.6 4.8 0.00 0.03 0.00 39 1016.3
20260502033504 8 149 1.6 4.8 0.00 0.03 0.00 40 1016.4
20260502033004 8 113 1.6 4.8 0.00 0.03 0.00 42 1016.2
20260502032503 8 155 1.6 4.8 0.00 0.03 0.00 41 1016.2
20260502032004 8 122 1.6 3.2 0.00 0.03 0.00 43 1016.0
20260502031504 9 143 1.6 4.8 0.00 0.03 0.00 38 1016.1
20260502031004 10 69 1.6 4.8 0.00 0.03 0.00 37 1015.8
20260502030525 10 19 3.2 4.8 0.00 0.03 0.00 37 1015.7
20260502030004 11 355 3.2 4.8 0.00 0.03 0.00 35 1015.7
20260502025504 11 1 1.6 4.8 0.00 0.03 0.00 33 1015.6
20260502025025 12 48 1.6 3.2 0.00 0.03 0.00 32 1015.6
20260502024504 12 48 1.6 3.2 0.00 0.03 0.00 32 1015.6
20260502024025 12 24 3.2 4.8 0.00 0.03 0.00 31 1015.6
20260502023504 12 6 3.2 4.8 0.00 0.03 0.00 31 1015.5
20260502023004 13 255 1.6 4.8 0.00 0.03 0.00 31 1015.6
20260502022503 13 46 1.6 3.2 0.00 0.03 0.00 31 1015.6
20260502022025 13 32 1.6 4.8 0.00 0.03 0.00 30 1015.4
20260502021504 14 49 1.6 4.8 0.00 0.03 0.00 28 1015.4
20260502021024 15 45 1.6 3.2 0.00 0.03 0.00 28 1015.3
20260502020504 15 49 1.6 3.2 0.00 0.03 0.00 27 1015.3
20260502020004 16 46 1.6 4.8 0.00 0.03 0.00 27 1015.3
20260502015504 16 52 1.6 4.8 0.00 0.03 0.00 26 1015.2
20260502015004 17 4 3.2 4.8 0.00 0.03 0.00 25 1015.3
20260502014525 18 43 3.2 4.8 0.00 0.03 0.00 23 1015.3
20260502014004 20 38 3.2 9.7 0.00 0.03 0.00 21 1015.3
20260502013504 21 12 4.8 11.3 0.00 0.03 0.00 21 1015.3
20260502013004 21 16 4.8 11.3 0.00 0.03 0.00 19 1015.0
20260502012525 22 352 4.8 11.3 0.00 0.03 0.00 18 1015.2
20260502012004 22 356 4.8 9.7 0.00 0.03 0.00 18 1015.2
20260502011504 22 339 6.4 11.3 0.00 0.03 0.00 17 1015.0
20260502011003 22 315 6.4 11.3 0.00 0.03 0.00 16 1015.2
20260502010525 23 325 4.8 11.3 0.00 0.03 0.00 16 1015.3
20260502010004 22 5 3.2 11.3 0.00 0.03 0.00 18 1015.2
20260502005503 23 20 3.2 11.3 0.00 0.03 0.00 18 1015.0
20260502005004 24 358 1.6 11.3 0.00 0.03 0.00 17 1015.0
20260502004504 23 65 1.6 9.7 0.00 0.03 0.00 18 1015.2
20260502004004 23 108 1.6 11.3 0.00 0.03 0.00 20 1014.9
20260502003504 23 110 1.6 11.3 0.00 0.03 0.00 17 1015.0
20260502003004 23 121 1.6 6.4 0.00 0.03 0.00 19 1015.3
20260502002503 22 112 3.2 9.7 0.00 0.03 0.00 18 1015.0
20260502002004 22 130 4.8 11.3 0.00 0.03 0.00 22 1015.3
20260502001504 23 116 3.2 11.3 0.00 0.03 0.00 18 1015.0
20260502001004 24 118 1.6 11.3 0.00 0.03 0.00 17 1015.2
20260502000504 23 138 1.6 6.4 0.00 0.03 0.00 17 1015.2
20260502000004 24 93 3.2 6.4 0.00 0.03 0.00 19 1015.4
20260501235503 24 163 1.6 6.4 0.00 0.03 0.00 16 1015.4